This demonstration page uses our WeatherBlox Daily Observations layout. Learn more.

39.08367, -84.50855

Hourly Observations for January 29, 2019

Temp ( °F °C ) Dew Point ( °F °C ) Humidity (%) Winds ( mph kmh ) Pressure ( in mb ) Visibility ( mi km ) Precip ( " mm )
12:53 am 00:53 Cloudy 24 -4.4 15 -9.4 68 68 WNW 13 20 29.91 1013 9 14.484096 0 0
1:53 am 01:53 Cloudy 21 -6.1 11 -11.7 65 65 W 16 26 29.94 1014 10 16.09344 0 0
2:53 am 02:53 Mostly Cloudy 18 -7.8 7 -13.9 62 62 W 14 22 29.97 1015 10 16.09344 0 0
3:53 am 03:53 Cloudy 18 -7.8 8 -13.3 65 65 W 12 19 29.97 1015 10 16.09344 0 0
4:20 am 04:20 Cloudy 18 -7.8 7 -13.9 62 62 WNW 9 15 30.03 1017 10 16.09344 0 0
4:53 am 04:53 Cloudy 18 -7.8 7 -13.9 62 62 W 10 17 30 1016 10 16.09344 0 0
5:53 am 05:53 Cloudy 18 -7.8 7 -13.9 62 62 W 15 24 30 1016 10 16.09344 0 0
6:22 am 06:22 Cloudy 18 -7.8 7 -13.9 62 62 W 13 20 30.06 1018 10 16.09344 0 0
6:48 am 06:48 Cloudy with Light Snow 18 -8 9 -13 68 68 W 10 17 30.06 1018 8 12.874752 0.001 0.001
6:53 am 06:53 Cloudy with Light Snow 18 -7.8 8 -13.3 65 65 W 15 24 30 1016 8 12.874752 0.001 0.001
7:37 am 07:37 Cloudy 17 -8.3 7 -13.9 64 64 W 12 19 30.06 1018 10 16.09344 0.001 0.001
7:48 am 07:48 Cloudy 18 -8 7 -14 62 62 W 10 17 30.06 1018 10 16.09344 0.001 0.001
7:53 am 07:53 Cloudy 18 -7.8 7 -13.9 62 62 W 13 20 30.03 1017 10 16.09344 0.001 0.001
8:07 am 08:07 Cloudy 17 -8.3 7 -13.9 64 64 W 13 20 30.06 1018 10 16.09344 0 0
8:53 am 08:53 Cloudy 18 -7.8 8 -13.3 65 65 W 12 19 30.06 1018 9 14.484096 0 0
9:53 am 09:53 Cloudy with Light Snow 18 -7.8 8 -13.3 65 65 SW 16 26 30.06 1018 6 9.656064 0.001 0.001
10:09 am 10:09 Cloudy with Light Snow 18 -7.8 7 -13.9 62 62 WSW 17 28 30.09 1019 6 9.656064 0.001 0.001
10:53 am 10:53 Cloudy 19 -7.2 8 -13.3 62 62 W 21 33 30.09 1019 8 12.874752 0.001 0.001
11:34 am 11:34 Cloudy with Light Snow 18 -7.8 7 -13.9 62 62 WSW 18 30 30.12 1020 9 14.484096 0.001 0.001
11:41 am 11:41 Cloudy 19 -7.2 7 -13.9 59 59 WSW 17 28 30.12 1020 10 16.09344 0.001 0.001
11:53 am 11:53 Cloudy 19 -7.2 7 -13.9 59 59 W 17 28 30.09 1019 10 16.09344 0.001 0.001
12:53 pm 12:53 Cloudy 19 -7.2 7 -13.9 59 59 W 16 26 30.06 1018 10 16.09344 0 0
1:53 pm 13:53 Partly Cloudy 19 -7.2 6 -14.4 57 57 W 18 30 30.06 1018 10 16.09344 0 0
2:53 pm 14:53 Mostly Cloudy 22 -5.6 5 -15 48 48 W 17 28 30.03 1017 10 16.09344 0 0
3:53 pm 15:53 Mostly Cloudy 21 -6.1 1 -17.2 41 41 W 22 35 30.06 1018 10 16.09344 0 0
4:53 pm 16:53 Mostly Cloudy 21 -6.1 2 -16.7 43 43 WSW 21 33 30.06 1018 10 16.09344 0 0
5:53 pm 17:53 Mostly Cloudy 21 -6.1 2 -16.7 43 43 WSW 14 22 30.06 1018 10 16.09344 0 0
6:53 pm 18:53 Clear 19 -7.2 3 -16.1 49 49 WSW 9 15 30.09 1019 10 16.09344 0 0
7:53 pm 19:53 Mostly Cloudy 19 -7.2 3 -16.1 49 49 SW 6 9 30.06 1018 10 16.09344 0 0
8:53 pm 20:53 Cloudy 19 -7.2 5 -15 54 54 SW 9 15 30.06 1018 10 16.09344 0 0
9:53 pm 21:53 Cloudy 20 -6.7 7 -13.9 57 57 SSW 9 15 30.06 1018 10 16.09344 0 0
10:53 pm 22:53 Cloudy with Light Snow 20 -6.7 12 -11.1 71 71 W 10 17 30.06 1018 4 6.437376 0.001 0.001
11:01 pm 23:01 Cloudy with Light Snow 20 -6.7 13 -10.6 74 74 W 12 19 30.09 1019 1.75 2.816352 0.001 0.001
11:07 pm 23:07 Cloudy with Light Snow 19 -7.2 14 -10 81 81 W 14 22 30.09 1019 0.75 1.207008 0.001 0.001
11:15 pm 23:15 Mostly Cloudy with Scattered Snow Showers 19 -7.2 15 -9.4 84 84 W 12 19 30.09 1019 1 1.609344 0.001 0.001
11:51 pm 23:51 Cloudy with Light Snow 19 -7.2 13 -10.6 77 77 W 16 26 30.06 1018 3 4.828032 0.001 0.001
11:59 pm 23:59 Cloudy with Light Snow 17 -8.3 11 -11.7 77 77 NW 10 17 30.09 1019 1.75 2.816352 0.001 0.001

Powered by AerisWeather